Flag for U.S.A. Weather past 2 weeks in Warren, Michigan, U.S.A.

Now
75 °F

Partly cloudy.


Feels Like: 75 °F
Forecast: 69 / 80 °F
Wind: 5 mph from Southwest

Location: Detroit City Airport

Current Time: Sep 1, 2014 at 11:52:31 PM

Latest Report: Sep 1, 2014 at 10:53 PM


Visibility: 10 mi

Pressure: 29.82 "Hg

Humidity: 85%

Dew point: 70 °F

Location of WarrenLocation

Historic Weather in Warren — Graph

°F

Warren temperature yesterday

Maximum temperature yesterday: 86 °F (at 4:53 PM)
Minimum temperature yesterday: 72 °F (at 5:53 AM)
Average temperature yesterday: 78 °F

Past Weeks' High & Low Weather Summary

 TemperatureHumidityPressure
High91 °F (Aug 26, 2:53 PM)90% (Aug 23, 6:53 AM)30.17 "Hg (Aug 23, 6:53 AM)
Low61 °F (Aug 28, 5:53 AM)36% (Aug 29, 5:53 PM)29.72 "Hg (Sep 1, 5:53 PM)
Average74 °F70%29.98 "Hg
* Reported Aug 17 9:53 PM — Sep 1 9:53 PM, Warren, Weather by CustomWeather, © 2014

Note: Actual official high and low records may vary slightly from our data, if they occured in-between our weather recording intervals... More about our weather records

Advertising

Warren weather history for previous 24 hours

 ConditionsComfort  
Time TempWeatherWind HumidityBarometerVisibility
9:53 PM
Sep 1
76 °FPassing clouds.5 mph82%29.82 "Hg10 mi
8:53 PM76 °FOvercast.6 mph85%29.79 "Hg10 mi
7:53 PM76 °FThunderstorms. Partly sunny.8 mph82%29.78 "Hg10 mi
6:53 PM76 °FStrong thunderstorms. Mostly cloudy.21 mph82%29.76 "Hg1 mi
5:53 PM86 °FPassing clouds.15 mph55%29.72 "Hg10 mi
4:53 PM85 °FScattered clouds.14 mph59%29.74 "Hg10 mi
3:53 PM84 °FPassing clouds.17 mph63%29.78 "Hg10 mi
2:53 PM83 °FPartly sunny.16 mph65%29.78 "Hg10 mi
1:53 PM82 °FScattered clouds.12 mph67%29.82 "Hg10 mi
12:53 PM78 °FCloudy.15 mph76%29.86 "Hg9 mi
11:53 AM76 °FLight rain. Mostly cloudy.13 mph85%29.86 "Hg8 mi
11:03 AM80 °FBroken clouds.13 mph71%29.89 "Hg10 mi
10:53 AM79 °FMostly cloudy.13 mph74%29.88 "Hg10 mi
9:53 AM77 °FPartly sunny.8 mph79%29.89 "Hg9 mi
8:53 AM76 °FOvercast.8 mph82%29.90 "Hg8 mi
7:53 AM74 °FPassing clouds.6 mph85%29.91 "Hg7 mi
6:53 AM74 °FPassing clouds.6 mph82%29.90 "Hg9 mi
5:53 AM74 °FPassing clouds.5 mph82%29.91 "Hg9 mi
4:53 AM74 °FPassing clouds.6 mph85%29.91 "Hg10 mi
3:53 AM75 °FPassing clouds.7 mph82%29.91 "Hg10 mi
2:53 AM76 °FClear.8 mph80%29.92 "Hg10 mi
1:53 AM76 °FClear.7 mph82%29.93 "Hg10 mi
12:53 AM76 °FClear.7 mph80%29.90 "Hg10 mi
11:53 PM
Aug 31
77 °FPassing clouds.3 mph74%29.91 "Hg10 mi
Weather by CustomWeather, © 2014

See weather overviewHow to use our weather pages